Weather History for Homer, AK

Change the Weather History Date:

Sunday, February 12, 2012

  Actual Average Record
Temperature  
Mean Temperature 34 °F -  
Max Temperature 37 °F 31 °F 46 °F (1970)
Min Temperature 32 °F 17 °F -11 °F (1956)
Degree Days  
Heating Degree Days 30    
Moisture  
Dew Point 30 °F    
Average Humidity 88    
Maximum Humidity 100    
Minimum Humidity 67    
Precipitation  
Precipitation 0.05 in - - ()
Sea Level Pressure  
Sea Level Pressure 29.28 in    
Wind  
Wind Speed 8 mph (East)    
Max Wind Speed 20 mph    
Max Gust Speed 26 mph    
Visibility 9 miles    
Events Snow    
Averages and records for this station are not official NWS values.
T = Trace of Precipitation, MM = Missing Value Source: NWS Daily Summary

Daily Weather History Graph

Daily Weather History Graph

Search for Another Location

Airport:

Trip Planner

Search our weather history database for the weather conditions in past years. The results will help you decide how hot, cold, wet, or windy it might be!

Date:

Astronomy

Feb. 12, 2012 Rise Set
Actual Time 8:51 AM AKST 5:50 PM AKST
Civil Twilight 8:07 AM AKST 6:34 PM AKST
Nautical Twilight 7:18 AM AKST 7:22 PM AKST
Astronomical Twilight 6:31 AM AKST 8:10 PM AKST
Moon 12:24 AM AKST (2/12) 9:33 AM AKST (2/12)
Length of Visible Light 10h 26m
Length of Day
8h 58m
Waning Gibbous, 71% of the Moon is Illuminated
Feb 12
Waning Gibbous
Feb 14
Last Quarter
Feb 21
New
Feb 29
First Quarter
Mar 8
Full

Hourly Weather History & Observations

Time (AKST) Temp. Windchill Dew Point Humidity Pressure Visibility Wind Dir Wind Speed Gust Speed Precip Events Conditions
12:11 AM 33.8 °F 25.8 °F 32.0 °F 93% 29.11 in 9.0 mi East 10.4 mph - 0.01 in   Overcast
12:30 AM 33.8 °F 24.8 °F 32.0 °F 93% 29.11 in 10.0 mi ENE 12.7 mph - 0.01 in   Mostly Cloudy
12:53 AM 32.0 °F 24.8 °F 32.0 °F 100% 29.12 in 10.0 mi NNE 8.1 mph - 0.01 in   Overcast
1:53 AM 34.0 °F 25.5 °F 30.9 °F 89% 29.13 in 10.0 mi ESE 11.5 mph 18.4 mph 0.00 in   Mostly Cloudy
2:53 AM 33.1 °F 30.0 °F 30.9 °F 92% 29.14 in 10.0 mi East 3.5 mph - N/A   Overcast
3:53 AM 33.1 °F - 30.9 °F 92% 29.17 in 10.0 mi Calm Calm - N/A   Overcast
4:53 AM 34.0 °F 31.0 °F 32.0 °F 92% 29.19 in 10.0 mi South 3.5 mph - N/A   Mostly Cloudy
5:53 AM 35.1 °F - 32.0 °F 89% 29.22 in 10.0 mi Calm Calm - N/A   Overcast
6:53 AM 35.1 °F - 32.0 °F 89% 29.25 in 10.0 mi Calm Calm - N/A   Overcast
7:53 AM 35.1 °F 30.1 °F 30.9 °F 85% 29.29 in 10.0 mi South 5.8 mph - N/A   Overcast
8:53 AM 34.0 °F - 30.9 °F 89% 29.33 in 10.0 mi Calm Calm - N/A   Overcast
9:53 AM 34.0 °F 31.0 °F 30.9 °F 89% 29.35 in 10.0 mi Variable 3.5 mph - N/A   Overcast
10:53 AM 35.1 °F 31.0 °F 30.9 °F 85% 29.37 in 10.0 mi SSW 4.6 mph - N/A   Mostly Cloudy
11:53 AM 36.0 °F 31.1 °F 30.9 °F 82% 29.39 in 10.0 mi South 5.8 mph - N/A   Overcast
12:53 PM 37.0 °F - 30.9 °F 79% 29.39 in 10.0 mi Calm Calm - N/A   Mostly Cloudy
1:53 PM 34.0 °F 29.8 °F 32.0 °F 92% 29.40 in 10.0 mi SSE 4.6 mph - N/A   Scattered Clouds
2:53 PM 35.1 °F 27.9 °F 28.0 °F 76% 29.39 in 10.0 mi ESE 9.2 mph 19.6 mph N/A   Clear
3:53 PM 35.1 °F 25.5 °F 25.0 °F 67% 29.38 in 10.0 mi ESE 15.0 mph 26.5 mph N/A   Clear
4:18 PM 33.8 °F 26.4 °F 26.6 °F 75% 29.37 in 5.0 mi ESE 9.2 mph 20.7 mph 0.00 in Snow Light Snow
4:41 PM 33.8 °F 25.8 °F 26.6 °F 75% 29.34 in 10.0 mi East 10.4 mph 19.6 mph 0.00 in   Overcast
4:53 PM 33.1 °F 21.5 °F 27.0 °F 78% 29.34 in 10.0 mi East 19.6 mph 23.0 mph 0.00 in   Overcast
5:53 PM 33.1 °F 21.5 °F 28.0 °F 82% 29.29 in 8.0 mi ENE 19.6 mph - N/A   Overcast
6:08 PM 33.8 °F 23.5 °F 28.4 °F 81% 29.28 in 5.0 mi East 16.1 mph - 0.00 in Snow Light Snow
6:53 PM 32.0 °F 22.5 °F 30.0 °F 92% 29.27 in 5.0 mi ENE 12.7 mph - 0.00 in Snow Light Snow
7:53 PM 32.0 °F 23.0 °F 30.9 °F 96% 29.26 in 6.0 mi East 11.5 mph - 0.00 in Snow Light Snow
8:53 PM 32.0 °F 23.6 °F 32.0 °F 100% 29.26 in 6.0 mi ENE 10.4 mph - 0.01 in Snow Light Snow
9:36 PM 32.0 °F 24.8 °F 32.0 °F 100% 29.26 in 3.0 mi ENE 8.1 mph - 0.02 in Snow Light Snow
9:53 PM 32.0 °F 23.0 °F 32.0 °F 100% 29.26 in 5.0 mi ENE 11.5 mph - 0.03 in Snow Light Snow
10:19 PM 32.0 °F 23.0 °F 32.0 °F 100% 29.25 in 10.0 mi NE 11.5 mph - 0.00 in   Overcast
10:53 PM 32.0 °F 22.5 °F 32.0 °F 100% 29.25 in 10.0 mi NE 12.7 mph - 0.00 in   Mostly Cloudy
11:53 PM 33.1 °F 24.4 °F 30.9 °F 92% 29.25 in 10.0 mi ENE 11.5 mph - N/A   Overcast